Regional Weather Roundup
Issued by NWS Northern Indiana

Home | Current Version | Previous Version | Graphics & Text | Print | Product List | Glossary On
Versions: 1 2 3 4 5 6 7 8 9 10 11 12 13 14 15 16 17 18 19 20 21 22 23 24 25 26 27 28 29 30 31 32 33 34 35 36 37 38 39 40 41 42 43 44 45 46 47 48 49 50
000
ASUS43 KIWX 071510
RWRIWX

KIWX WEATHER ROUNDUP
NATIONAL WEATHER SERVICE NORTHERN INDIANA
1000 AM EST SUN FEB 07 2016

NOTE: "FAIR" INDICATES FEW OR NO CLOUDS BELOW 12,000 FEET WITH NO
SIGNIFICANT WEATHER AND/OR OBSTRUCTIONS TO VISIBILITY.

* THESE STATIONS ARE NOT UNDER NWS QUALITY CONTROL. THEY ALSO MAY NOT
  REPORT WEATHER SUCH AS PRECIPITATION OR FOG.

INZ001>027-071600-
NORTHERN INDIANA

CITY           SKY/WX    TMP DP  RH WIND       PRES   REMARKS
GARY*          PTSUNNY   41  28  60 SW17      29.86F
VALPARAISO     PTSUNNY   39  29  67 S14       29.87F
MICHIGAN CITY* CLOUDY    39  30  70 S12G18    29.86F
LAPORTE*       MOSUNNY   39  32  77 S8        29.88F
SOUTH BEND     PTSUNNY   39  28  64 SW14      29.88F
GOSHEN         MOSUNNY   38  28  67 S15       29.90F
MONTICELLO*    CLOUDY    38  25  58 SW12      29.93F
LOGANSPORT*    MOSUNNY   36  27  69 S9        29.95F
ROCHESTER*     CLOUDY    39  27  60 SW12G17   29.93F
WARSAW*        CLOUDY    37  28  70 SW6       29.92S
FORT WAYNE     PTSUNNY   37  27  67 S13       29.97S
HUNTINGTON*    MOSUNNY   37  24  59 S7        29.96F
PERU/GRISSOM   MOSUNNY   39  29  66 SW14      29.94F
MARION*        CLOUDY    36  21  54 S15       29.99S

$$
INZ028>050-071600-
CENTRAL INDIANA

CITY           SKY/WX    TMP DP  RH WIND       PRES   REMARKS
LAFAYETTE      MOSUNNY   40  28  62 S9        29.95F
KOKOMO*          N/A     39  27  60 S14       29.96F
MUNCIE*        MOSUNNY   41  24  51 S9        30.00F
INDIANAPOLIS   CLOUDY    40  24  53 S10       30.01S

$$
MIZ043>046-050>051-056>058-064>065-071>073-077>080-071600-
SOUTHWEST LOWER MICHIGAN

CITY           SKY/WX    TMP DP  RH WIND       PRES   REMARKS
BATTLE CREEK   PTSUNNY   37  27  67 S14G24    29.86F
BENTON HARBOR  CLOUDY    40  29  64 S12G20    29.84F
COLDWATER*     CLOUDY    38  29  70 SW8       29.90F
HILLSDALE*     CLOUDY    34  27  75 S7        29.90F WCI  28
HOLLAND        CLOUDY    40  30  67 SW14      29.82F
GRAND RAPIDS   PTSUNNY   39  29  67 S16       29.82F
KALAMAZOO      PTSUNNY   39  29  67 S14       29.86F
STURGIS*       CLOUDY    36  28  75 SW9       29.88F
THREE RIVERS*  FAIR      37  30  77 S9        29.88F

$$
OHZ001>008-015>018-024>025-071600-
NORTHWEST OHIO

CITY           SKY/WX    TMP DP  RH WIND       PRES   REMARKS
DEFIANCE       MOSUNNY   38  27  64 S10       29.97S
FINDLAY        CLOUDY    38  28  67 S15       29.99S
TOLEDO EXPRESS CLOUDY    36  26  67 S7        29.97R
TOLEDO METCALF CLOUDY    38  27  64 S12       29.98F
LIMA           CLOUDY    37  26  64 S9        30.00S

$$
AND FOR LAKE MICHIGAN COASTAL AND OPEN LAKE BUOY OBSERVATIONS

STATION/POSITION TEMP    WIND        PRES    VSBY  WAVE
                 AIR SEA DIR/SP/G                  HT/PER
                 (F)     (DEG/KT/KT) (MB)    (MI)  (FT/S)
CALUMET HARBOR    39     190/ 12/ 16 1010.2F
MICHIGAN CITY     39     160/ 16/ 20   N/A
BURNS HARBOR      39     200/ 19/ 25 1011.5F
SAINT JOSEPH      42     180/ 15/ 20 1011.2F

$$
&&



USA.gov is the U.S. government's official web portal to all federal, state and local government web resources and services.